Wind_Speed
61 65 66 66 67 66 65 65 68 71 74 76 77 76 74 74 75 73 70 65 62 59 56 53 50 48 47 47 47 46 47 47 46 44 42 42 40 39 38 37 36 35 32 30 25 21 20 22 22 19 17 18 17 16 16 16 16 16 16 18 21 23 23 23 24 25 23 22 21 21 20 19 18 18 18 19 20 21 22 22 22 24 25 28 33 38 39
61 65 66 66 66 65 63 63 66 70 73 76 78 77 73 72 74 73 70 66 62 59 56 54 51 49 47 47 46 46 46 47 47 44 42 41 40 39 38 38 37 35 31 28 24 21 22 23 22 20 20 20 19 18 17 17 17 18 18 19 22 24 24 23 24 25 23 22 21 21 21 19 18 17 17 18 19 20 21 22 23 26 29 31 33 37 39
61 65 67 66 64 63 62 62 65 69 72 75 76 74 71 72 74 73 70 67 62 57 53 53 55 53 49 49 49 49 48 48 48 46 43 41 40 38 37 37 36 33 29 26 24 24 25 24 23 23 22 21 20 19 18 19 19 20 20 21 23 25 25 24 25 25 24 22 21 21 20 18 16 15 16 17 18 19 20 22 24 26 30 32 34 37 40
58 62 65 65 63 62 61 61 64 68 71 72 72 70 69 71 74 74 71 68 63 56 49 50 56 56 52 52 53 52 51 50 48 46 44 41 40 39 37 36 33 30 29 27 27 27 26 26 26 26 25 23 21 20 20 21 22 23 23 23 25 27 27 26 27 28 28 25 21 20 19 17 15 14 15 16 17 18 19 21 23 26 29 32 35 37 40
57 61 63 64 64 63 60 61 65 67 68 68 67 65 66 69 72 73 71 69 67 60 52 51 56 58 55 54 55 55 53 51 48 47 45 42 40 40 38 36 33 32 30 29 29 28 29 29 29 27 26 25 23 22 22 23 24 24 23 24 25 27 28 28 29 31 32 29 24 22 20 17 14 14 15 17 19 19 20 21 22 25 27 31 34 37 39
58 62 64 65 65 63 62 62 63 64 65 66 63 63 64 67 72 73 72 71 68 62 55 52 53 57 58 56 56 56 54 52 49 47 45 43 41 39 37 35 33 30 29 30 31 31 32 32 30 27 27 26 25 24 25 26 26 24 23 23 24 26 28 29 29 30 32 31 28 27 24 19 16 18 20 22 23 23 23 23 23 24 25 28 32 36 39
59 64 66 65 63 62 62 62 62 62 64 65 64 64 64 65 71 74 73 71 67 61 57 53 52 57 59 57 57 57 54 52 50 47 45 43 41 39 37 33 30 29 30 31 33 34 33 32 29 28 29 29 28 27 27 27 26 24 23 23 24 25 27 27 28 28 27 27 29 31 30 25 23 25 28 28 27 26 26 25 25 24 24 26 30 34 38
59 64 66 65 64 64 63 61 61 61 63 64 65 67 65 64 71 76 74 72 69 62 59 57 56 58 61 59 57 57 54 52 50 47 45 43 41 38 35 32 30 30 31 30 30 32 33 32 31 31 32 32 31 29 28 27 27 26 26 25 25 26 27 27 27 26 25 24 26 30 32 31 30 31 32 30 29 28 27 26 26 26 25 25 27 31 35
58 63 66 67 67 66 63 61 60 60 62 64 66 69 68 66 69 74 74 73 72 65 60 60 59 59 61 61 59 56 54 52 50 48 45 43 40 37 33 31 30 31 31 29 27 28 28 30 32 33 33 32 31 29 27 27 28 28 27 26 26 25 25 26 26 26 25 25 25 28 33 35 34 33 32 32 31 31 29 26 26 26 27 26 26 28 32
57 64 68 69 68 66 64 64 63 62 62 65 67 70 70 67 67 72 73 72 72 68 62 60 60 59 60 61 59 56 54 51 49 47 45 43 40 37 32 30 31 33 33 30 29 28 28 29 32 35 34 32 29 27 26 27 28 29 28 29 28 26 25 26 27 27 27 27 27 29 33 36 36 34 33 33 34 35 32 28 26 27 28 28 29 29 30
56 63 68 70 68 67 65 64 64 65 65 66 68 69 68 67 67 72 74 71 71 70 65 60 60 59 58 58 58 56 54 51 49 47 45 43 40 37 34 31 31 33 34 33 32 32 32 31 30 30 30 28 24 22 22 25 27 28 28 29 29 27 28 31 31 30 30 30 29 30 32 36 37 35 35 36 37 37 34 30 28 28 29 30 31 31 31
53 61 67 69 69 68 66 62 62 65 67 67 67 66 66 66 68 70 72 71 70 69 66 63 61 60 58 57 56 55 53 51 49 46 44 42 39 37 36 34 32 34 38 39 37 34 33 30 26 24 24 22 18 17 19 23 27 27 28 31 34 31 29 33 35 35 35 34 32 32 33 36 37 37 37 39 39 38 35 32 30 30 31 32 31 31 31
51 58 65 69 69 67 66 63 61 63 65 66 65 64 65 67 69 70 71 70 68 66 65 62 60 58 58 57 55 54 52 50 49 47 44 41 38 36 37 39 40 41 42 42 39 36 33 29 26 25 24 20 15 16 20 24 29 31 30 32 35 33 30 32 35 36 36 36 34 34 35 36 38 38 39 41 41 39 36 33 31 31 31 31 31 31 31
48 56 63 68 69 68 67 64 61 60 63 64 64 64 64 66 69 71 71 70 68 66 63 60 56 55 55 55 54 52 51 50 48 45 42 39 37 37 40 45 47 46 44 42 38 36 33 30 27 26 25 24 22 25 29 29 29 30 31 31 33 35 34 34 34 35 37 37 34 32 34 36 38 40 42 43 42 40 36 32 30 31 31 31 31 31 31
45 52 60 65 68 68 67 64 60 58 60 63 65 65 64 64 66 69 70 70 68 66 63 60 55 52 52 52 52 51 50 49 47 44 41 39 38 40 43 47 49 47 46 44 40 37 34 32 30 26 26 27 29 33 37 35 30 27 30 34 37 39 38 38 40 41 41 40 35 31 31 35 38 42 45 44 42 38 35 32 31 31 32 32 33 32 31
42 47 55 61 65 66 65 63 61 59 59 62 64 65 64 63 64 66 68 69 68 66 63 60 57 54 50 50 51 51 50 49 47 44 43 42 40 40 43 47 48 48 48 47 44 41 38 37 36 33 30 29 31 34 37 36 33 31 33 36 37 37 36 38 41 42 40 39 35 29 29 34 40 43 43 40 37 34 33 32 32 32 34 34 35 34 33
38 43 49 56 61 64 64 63 62 60 60 61 63 65 65 63 63 64 66 67 67 65 63 61 59 57 53 51 51 51 50 49 49 48 49 47 42 40 41 43 44 46 48 50 48 44 41 41 41 38 35 34 34 36 38 38 36 35 37 37 34 32 32 34 36 37 37 36 32 27 27 33 40 40 37 35 34 34 35 35 35 35 36 37 37 36 36
35 40 44 50 56 58 59 61 61 59 59 60 61 63 64 63 63 63 63 65 66 64 62 62 61 60 57 53 51 49 48 48 49 51 52 52 50 47 45 43 43 44 47 50 49 44 42 43 43 39 37 38 40 40 41 42 40 38 40 41 37 34 35 36 36 35 34 34 34 33 32 35 38 38 38 39 40 41 42 43 42 39 39 40 40 39 38
32 35 40 45 51 51 51 55 59 59 59 59 59 61 63 63 62 61 60 60 61 61 62 63 62 61 59 56 53 49 46 45 45 47 50 54 57 57 53 49 48 48 49 51 50 46 44 45 46 43 41 41 42 43 43 45 44 42 43 46 45 43 44 45 43 40 37 37 38 40 41 41 42 43 45 47 48 49 49 50 48 44 42 42 43 42 41
31 33 37 41 46 49 48 49 54 57 60 61 60 60 61 62 61 60 58 57 57 58 62 64 64 63 61 59 57 53 48 46 47 49 52 55 58 60 59 55 53 53 53 54 53 50 49 49 50 49 47 45 44 45 45 47 49 49 48 49 51 50 49 48 49 49 48 46 43 44 47 48 49 52 53 54 55 55 55 55 53 49 46 44 44 43 43
31 35 37 40 45 50 50 49 51 55 59 62 62 61 61 61 61 60 59 58 59 60 62 64 66 65 62 61 61 59 54 50 50 53 57 58 58 59 61 61 59 58 57 56 55 54 53 52 53 54 54 52 51 50 49 50 52 54 53 54 56 55 53 51 52 54 55 54 50 48 49 50 52 56 58 59 60 60 60 59 57 52 49 46 45 45 45
33 37 40 43 48 51 52 52 52 54 57 61 63 63 61 61 62 62 61 61 62 62 63 64 66 67 65 63 62 63 61 57 53 54 58 61 62 62 62 64 66 65 62 60 59 58 57 56 55 56 57 56 56 56 55 54 54 56 56 57 59 60 59 58 58 59 60 59 55 51 50 50 51 54 57 59 61 61 62 61 58 55 51 48 47 46 46
35 39 41 45 49 51 51 51 53 55 59 62 64 65 63 62 63 64 64 63 63 64 65 66 65 67 67 66 65 65 65 63 58 56 58 62 65 67 66 66 68 70 69 68 65 64 64 63 60 59 59 58 58 58 59 59 59 59 59 58 59 61 62 63 63 63 63 62 59 57 55 54 55 57 59 60 61 62 62 61 59 57 53 50 49 48 47
37 39 41 44 47 48 48 48 50 54 58 61 63 65 64 63 63 64 64 65 64 64 64 65 66 66 68 68 68 68 69 68 65 61 59 61 64 68 70 70 70 70 72 73 72 70 69 67 64 62 60 58 57 57 58 59 61 62 62 61 61 63 65 66 67 67 66 65 64 63 61 60 60 60 61 61 62 62 63 62 60 58 55 53 51 50 48
36 39 40 42 45 45 45 45 46 48 52 55 59 62 64 64 64 63 64 65 65 64 64 64 66 67 67 69 70 71 72 73 72 69 66 64 63 65 68 71 72 71 71 72 72 71 70 68 66 64 62 60 58 59 60 61 62 64 65 66 66 68 69 70 71 70 69 69 68 67 65 64 62 61 61 60 61 63 64 63 60 58 57 56 54 53 51
33 37 40 41 43 43 44 43 43 44 45 47 51 55 59 62 63 63 63 64 65 65 65 65 67 68 68 71 73 74 74 75 75 75 74 72 69 67 67 69 71 73 73 73 73 71 70 69 68 67 66 65 64 64 64 65 65 67 68 69 70 71 72 73 75 75 75 74 73 72 71 68 66 64 63 63 63 64 64 62 60 59 59 58 56 55 54
27 31 35 37 39 40 41 40 39 39 40 41 44 48 52 57 60 62 63 63 63 64 64 66 68 70 71 72 74 75 75 76 76 76 76 75 74 72 71 69 69 70 72 73 74 74 73 73 72 72 71 71 70 68 67 66 66 66 66 67 68 69 69 70 72 74 75 75 75 75 75 73 70 68 67 66 66 66 64 62 61 60 60 59 58 57 56
24 26 29 31 33 34 35 36 36 35 35 37 38 40 44 49 54 58 61 62 63 63 63 64 66 69 71 73 74 73 73 74 74 75 75 75 75 75 74 74 72 71 71 72 73 73 74 74 75 75 74 73 72 71 69 68 67 66 65 65 66 67 68 68 70 71 73 74 75 76 77 76 76 74 72 70 69 67 66 64 63 62 62 60 59 59 58
25 27 28 29 29 30 31 33 34 34 33 34 34 36 38 41 46 51 56 59 60 61 62 63 64 65 67 69 71 72 73 73 73 74 74 75 75 75 76 75 75 75 74 74 74 74 74 74 75 75 75 75 74 73 71 70 70 69 69 69 69 70 71 72 73 74 74 75 76 77 78 79 79 79 77 74 71 69 68 67 66 65 64 63 62 61 61
25 27 29 30 29 29 29 30 32 33 33 34 35 36 37 38 40 44 49 53 56 57 58 59 61 62 63 64 66 68 71 72 73 75 75 75 76 76 77 76 76 76 76 76 75 75 76 76 75 75 76 75 75 74 72 71 70 70 70 70 71 72 73 73 73 73 74 74 75 76 77 78 79 80 79 77 74 72 70 69 68 68 67 66 65 64 63
25 27 29 30 30 30 30 30 31 31 32 33 34 36 37 38 39 40 43 47 50 52 54 55 56 57 59 61 62 63 64 66 68 70 72 73 74 75 75 76 76 76 76 75 75 74 74 73 73 72 72 72 72 71 70 69 68 68 68 68 69 70 71 72 72 73 73 74 74 75 75 77 78 79 79 78 76 74 72 71 71 71 70 69 68 67 66
26 26 28 29 31 31 32 32 32 32 32 33 33 34 36 37 38 39 40 42 45 47 50 52 54 55 56 58 59 59 59 60 61 63 65 67 68 69 70 71 72 72 72 71 71 70 69 68 67 67 67 67 67 67 66 67 67 67 68 68 69 69 70 70 71 72 73 74 74 74 75 76 77 78 79 79 78 77 76 75 75 74 73 71 70 69 68
28 27 27 28 30 32 34 34 34 34 34 34 34 34 35 36 37 38 40 41 42 44 46 48 50 52 54 56 57 57 57 57 58 59 60 61 62 63 64 65 66 65 65 64 64 64 64 63 64 64 64 64 65 65 65 65 66 67 67 68 69 69 70 70 71 71 72 73 73 73 73 74 74 75 76 76 77 76 76 76 75 74 72 72 71 70 70
30 29 28 28 29 32 34 36 36 36 36 36 35 35 36 37 38 39 39 41 42 43 45 46 48 50 51 53 54 55 56 56 56 56 56 57 57 58 59 59 59 59 59 58 58 59 59 59 60 62 63 63 63 65 66 66 67 68 68 69 70 70 71 71 71 71 71 71 71 71 71 71 71 71 71 71 71 71 71 72 72 72 71 72 72 71 71
32 32 30 29 28 30 32 35 36 37 37 37 37 37 37 38 38 39 40 41 42 43 44 46 47 48 49 50 52 53 54 54 55 55 55 55 55 56 56 56 56 56 56 56 56 57 57 57 57 59 59 59 59 61 63 64 65 66 67 67 68 68 68 69 68 68 68 68 69 69 69 69 69 69 69 69 70 70 70 71 72 72 72 72 72 72 71
35 34 33 31 30 30 31 33 35 37 38 38 38 39 39 39 40 40 41 42 43 44 45 46 47 47 48 49 50 51 52 53 54 54 55 55 56 56 57 57 56 56 56 56 56 57 58 58 57 58 59 58 58 59 59 60 61 62 62 63 64 64 64 64 65 65 65 66 67 67 68 68 68 69 69 70 71 72 72 72 73 73 73 72 71 70 68
39 38 37 36 34 32 32 32 34 35 37 38 39 40 41 41 41 41 42 42 43 44 45 46 47 48 49 50 50 51 51 52 53 54 55 56 57 57 58 59 59 58 58 58 58 59 59 59 59 59 60 60 59 59 60 60 61 61 62 62 63 64 64 64 65 65 65 66 67 67 68 68 68 69 69 70 71 72 72 72 72 71 70 69 67 65 64
42 41 41 40 38 36 35 35 34 35 36 37 39 40 41 41 42 42 43 44 44 45 45 46 48 49 49 50 50 51 52 52 53 54 54 55 56 57 58 59 60 59 59 60 60 60 60 60 60 60 60 60 60 60 60 61 61 62 63 64 65 66 66 67 67 67 67 67 68 68 69 69 69 69 70 71 71 71 70 69 68 67 66 65 64 64 63
41 42 42 42 41 40 39 38 38 37 37 37 38 39 40 41 42 43 43 44 45 45 46 47 48 49 50 51 51 52 53 53 54 54 55 55 56 56 57 58 59 59 59 60 60 60 61 61 61 61 62 62 63 64 65 66 66 67 68 69 70 70 71 71 71 70 70 71 71 71 71 71 70 70 70 69 69 68 67 66 66 65 64 64 64 64 64
37 39 40 41 41 41 41 40 40 40 40 39 40 40 41 41 42 43 44 44 45 46 46 47 48 50 50 51 52 53 54 54 55 56 56 57 58 58 59 60 61 61 62 62 62 62 63 64 64 64 65 66 67 68 69 70 71 72 73 74 74 75 75 75 74 73 73 72 72 72 71 71 70 69 68 68 67 67 67 66 66 66 66 65 65 66 66
31 33 35 36 38 39 39 40 40 40 41 41 41 41 42 42 43 44 44 45 46 46 47 48 49 50 51 52 52 53 54 54 55 56 57 58 58 59 60 61 62 63 64 65 65 65 66 66 66 67 68 68 69 70 71 72 73 74 74 75 75 75 75 75 74 73 72 71 71 70 70 70 69 69 69 68 68 69 69 69 69 69 69 69 69 69 69
28 29 29 31 33 34 35 36 37 38 39 40 40 41 42 42 43 44 45 46 46 47 48 49 50 51 52 53 53 54 54 55 55 56 57 58 59 60 60 61 62 63 64 65 66 66 67 67 67 68 69 69 70 70 71 71 72 73 73 73 73 74 74 73 73 72 71 71 71 70 70 70 71 71 71 72 72 72 73 73 73 72 72 71 71 71 71
28 28 27 28 28 30 31 32 32 33 35 36 37 38 39 40 41 42 43 44 45 47 48 49 50 51 53 54 55 55 56 56 57 58 59 59 60 61 62 62 63 64 65 65 66 66 67 67 67 68 68 69 69 70 70 70 71 71 72 72 72 73 73 73 73 73 73 72 72 73 73 73 73 73 73 73 73 73 73 74 73 73 72 71 71 71 71
30 29 28 28 27 28 28 28 29 29 30 31 32 33 34 35 36 37 38 39 40 41 43 44 46 48 50 51 53 54 55 57 58 59 60 61 62 63 64 64 65 65 66 67 67 68 68 68 69 69 70 70 70 71 71 71 71 72 72 72 72 73 73 73 73 72 72 71 71 71 71 71 70 70 70 69 69 69 69 69 69 69 69 69 69 69 69
32 31 31 30 29 29 28 28 28 28 28 29 29 30 31 31 32 32 32 33 34 35 36 37 39 40 42 44 45 47 49 50 52 54 55 57 58 59 60 61 62 63 64 65 66 66 67 67 67 68 68 68 69 69 69 69 69 69 69 69 69 69 68 68 68 68 67 66 65 65 65 65 64 64 64 64 64 64 64 64 64 64 64 65 65 65 65
35 34 33 33 32 31 31 30 30 30 30 30 30 30 30 30 30 30 30 31 31 32 32 33 34 35 37 38 39 40 42 43 44 46 47 48 50 51 52 53 54 55 56 57 58 59 59 60 60 60 61 61 61 62 62 63 63 63 62 62 62 62 62 62 63 63 62 61 61 60 61 61 60 60 59 59 60 60 60 60 60 60 60 60 60 60 60
37 37 36 35 35 34 34 33 33 33 32 32 32 32 32 32 31 31 31 32 32 32 33 34 34 35 36 36 37 38 39 40 41 42 44 45 46 47 48 49 49 50 50 51 52 53 53 54 54 55 55 56 56 56 57 58 58 59 59 58 58 58 59 59 59 59 60 60 59 58 58 58 58 58 58 58 58 58 58 58 58 58 58 58 58 58 58
39 38 38 37 37 37 36 36 36 36 35 35 35 34 34 34 34 33 33 33 33 34 34 34 34 35 35 36 37 38 38 39 40 42 43 43 44 45 46 47 47 47 47 48 49 49 50 51 51 51 52 53 53 53 54 55 55 55 56 56 56 56 57 57 57 57 57 57 57 57 57 57 57 57 57 58 58 58 58 59 59 59 59 59 59 59 60
40 39 39 38 38 38 38 38 38 38 37 37 36 36 36 36 35 34 34 34 34 34 34 34 35 35 35 36 37 38 39 40 41 42 42 43 44 45 45 45 45 45 45 46 46 47 48 48 49 49 49 50 50 51 52 53 53 53 53 54 54 55 56 56 56 55 55 56 56 56 57 57 57 57 57 58 58 58 58 58 59 60 60 61 61 61 61
41 40 40 40 39 39 39 39 39 39 38 38 37 37 37 36 36 35 34 34 34 35 35 35 36 36 36 37 38 39 40 40 41 41 42 42 43 44 44 44 44 44 44 44 45 45 46 46 47 47 47 47 48 48 49 50 51 51 51 51 52 53 53 53 53 53 53 54 54 54 55 55 55 56 57 57 57 57 57 57 58 59 60 61 61 61 62
41 41 41 40 40 40 39 39 39 39 39 38 38 38 38 37 37 36 36 35 36 36 37 37 37 37 37 38 38 39 39 40 40 39 40 41 42 42 43 42 42 42 42 42 43 43 43 44 44 44 45 45 45 46 47 48 49 49 49 50 50 51 51 51 51 51 51 51 51 51 52 52 53 53 54 55 55 55 56 56 57 58 59 59 60 60 61
42 41 41 41 40 40 40 40 40 40 40 39 39 39 39 39 38 38 37 37 37 37 37 37 37 37 38 38 38 38 39 38 38 38 38 39 40 41 41 41 41 41 41 41 41 41 41 41 42 42 43 43 44 44 45 46 47 47 47 47 48 49 49 48 48 49 49 49 49 49 49 49 50 50 50 51 51 51 52 53 54 55 56 57 57 58 59
Wind_Direction
184 185 187 187 187 189 191 190 188 186 187 187 187 187 188 189 189 191 192 193 194 199 203 206 206 203 198 195 196 199 203 206 205 202 201 201 202 204 206 209 212 215 218 221 221 221 225 233 239 241 246 253 255 257 258 262 269 274 278 280 282 288 294 298 299 298 293 287 285 287 290 292 293 293 293 292 290 288 283 268 247 235 234 231 226 227 229
183 185 187 187 187 188 190 190 189 188 188 189 189 187 186 186 188 189 190 190 193 197 201 205 207 205 200 197 197 199 203 207 207 205 203 202 203 205 207 210 214 216 219 220 221 225 231 237 241 245 249 252 251 252 255 261 268 273 275 276 278 282 287 291 295 297 293 286 283 284 288 291 294 296 295 294 294 291 287 279 260 241 235 236 233 230 231
183 185 186 186 186 187 188 189 190 190 190 191 190 187 184 184 187 188 188 189 192 196 198 203 206 206 202 199 198 198 201 205 208 207 204 203 203 206 209 212 216 218 221 224 227 231 235 238 242 244 247 247 246 250 256 261 265 269 270 271 272 275 280 285 292 296 293 284 280 281 286 293 299 302 301 300 299 295 289 284 274 256 243 240 237 235 235
184 186 186 185 185 186 187 188 190 191 192 191 190 187 185 185 186 187 187 187 190 193 197 201 203 204 203 201 200 199 200 204 206 206 205 204 204 205 209 212 217 221 225 229 231 233 236 239 241 243 244 243 245 252 257 259 263 267 271 273 274 276 281 285 291 296 294 286 279 282 286 293 304 312 313 312 309 304 296 288 282 272 258 248 242 239 239
183 185 186 185 184 184 186 189 190 191 192 191 189 187 187 186 186 187 187 187 188 189 194 201 201 201 203 203 202 202 202 203 205 205 205 205 205 206 208 209 212 218 224 231 235 238 240 240 240 243 243 242 247 254 257 259 263 269 276 278 277 278 282 287 291 293 293 288 281 283 288 292 304 317 322 320 318 315 309 299 290 282 272 261 252 246 244
182 184 185 185 185 184 185 189 190 191 191 189 187 187 188 188 188 188 187 188 188 188 192 198 198 199 202 204 204 204 203 204 205 205 205 206 206 208 210 212 215 220 226 234 238 238 239 239 241 243 243 243 249 252 253 258 263 271 279 280 278 277 279 283 286 287 289 289 284 284 287 288 298 309 314 313 314 315 313 307 298 289 281 273 264 256 251
181 183 184 185 185 185 187 188 189 190 190 187 184 185 188 189 189 189 188 188 188 188 192 196 197 197 201 203 205 206 205 205 205 206 207 208 208 210 213 217 224 225 224 230 237 239 240 243 245 244 242 244 249 251 252 257 263 271 280 280 278 278 276 278 282 282 283 286 286 286 286 286 291 298 300 301 304 308 310 305 300 295 288 280 274 267 261
180 182 183 184 185 186 188 188 187 189 189 186 184 185 187 189 190 190 189 188 187 187 191 195 197 197 199 202 204 205 206 206 206 208 209 210 211 212 214 218 224 222 218 223 237 245 246 247 246 244 243 245 247 249 251 257 265 272 277 277 276 277 275 275 278 276 273 277 280 281 281 281 282 287 291 294 298 304 306 302 297 296 293 287 279 274 269
180 181 182 184 186 187 188 188 186 187 188 187 185 186 189 190 191 191 191 190 189 189 190 193 196 198 199 201 202 204 206 206 207 208 209 211 211 211 213 215 218 219 219 222 235 246 249 250 247 243 242 243 245 248 253 259 266 271 272 272 273 273 273 274 277 273 266 266 270 272 274 275 275 280 287 291 295 301 303 299 294 293 295 294 288 280 274
180 182 183 185 187 188 189 188 185 184 187 189 188 189 191 191 191 192 193 193 193 194 193 193 195 198 200 200 201 203 205 206 207 208 209 210 211 210 212 213 212 213 218 224 233 243 249 251 248 242 242 243 245 248 253 259 263 266 267 268 268 270 272 275 279 277 268 262 262 266 270 271 272 277 283 288 294 299 300 296 293 292 295 297 295 289 280
181 183 184 186 188 189 192 191 185 182 186 190 190 191 193 192 191 193 195 195 195 197 198 198 198 200 201 201 202 203 205 206 208 209 210 212 212 210 208 208 209 216 226 232 236 239 243 246 244 238 236 236 237 243 254 261 262 262 265 267 269 272 270 270 277 283 279 269 262 263 268 269 269 274 280 286 292 296 296 294 293 293 295 297 295 292 285
183 184 185 187 189 190 193 193 188 184 186 189 190 190 192 194 193 194 195 196 197 199 200 201 202 202 203 203 204 204 205 207 208 210 212 213 213 212 208 204 208 221 231 234 233 233 238 242 238 229 224 226 238 257 273 276 272 268 266 264 267 271 268 267 274 282 283 279 271 266 268 269 269 274 281 286 290 291 291 292 292 294 297 297 296 293 289
184 184 186 188 190 192 193 194 191 188 188 188 188 190 192 194 195 196 196 197 198 200 201 201 202 203 204 205 206 207 207 209 210 211 213 214 214 215 213 210 212 218 224 227 228 228 231 233 228 223 222 228 244 261 268 274 277 279 273 264 263 268 269 270 275 278 280 284 279 269 265 267 270 275 281 285 287 287 287 289 291 295 297 298 298 297 294
185 185 187 189 191 192 194 195 193 191 190 188 188 190 193 195 197 198 197 197 199 200 202 202 202 203 204 205 207 209 210 211 212 212 213 213 213 215 217 217 218 220 222 225 227 225 224 223 223 223 225 227 229 232 237 245 258 273 278 272 268 271 272 271 271 272 278 285 280 266 260 265 270 275 280 284 284 284 285 289 292 296 298 300 301 301 298
184 186 188 190 193 194 195 195 193 192 192 191 190 191 192 195 197 199 199 199 199 200 201 202 202 204 206 207 208 210 212 213 214 213 211 209 210 215 220 221 221 222 222 223 226 227 223 222 222 221 221 224 223 223 228 232 235 249 270 277 277 277 277 273 268 269 275 280 275 263 260 264 269 275 279 281 282 284 288 293 296 298 301 302 304 304 302
182 186 188 191 193 195 196 196 194 194 194 194 193 192 192 195 197 199 200 200 200 200 201 201 202 204 206 208 209 210 211 213 213 211 207 207 209 216 219 219 218 221 221 221 224 226 225 225 228 228 226 227 226 223 227 230 229 233 249 261 266 272 277 275 270 267 271 274 271 265 264 267 269 273 276 279 283 289 294 298 301 304 304 305 306 307 306
180 183 188 191 193 195 197 198 196 196 196 197 196 195 194 195 197 198 199 200 200 200 201 203 203 204 205 206 208 209 210 212 213 210 208 208 210 214 217 215 215 218 221 221 221 223 224 225 230 232 230 227 226 225 228 232 232 233 240 244 249 259 270 273 269 266 269 271 265 260 265 268 267 268 272 280 288 294 299 304 306 306 305 305 306 307 307
175 179 184 189 192 194 197 199 199 199 199 200 199 198 197 197 198 199 199 199 199 200 202 203 205 206 206 206 206 206 208 211 213 213 212 212 212 214 217 216 213 212 214 216 218 220 221 221 224 228 227 225 225 227 231 235 236 236 240 243 247 252 259 265 266 265 269 271 263 258 264 268 265 265 274 284 291 295 300 304 305 305 304 303 303 304 305
167 173 178 184 188 191 194 198 201 202 203 203 202 200 200 200 200 200 200 199 199 201 202 203 205 206 207 206 205 204 205 209 210 212 213 214 214 216 218 219 217 214 213 214 218 222 224 222 222 224 225 227 229 230 232 236 240 240 242 247 251 252 254 258 261 263 268 272 267 262 264 266 266 268 275 283 289 293 298 302 304 304 302 300 300 301 302
157 166 172 177 182 186 189 194 198 202 204 204 203 203 202 202 201 200 199 199 199 202 204 204 205 206 205 206 205 202 201 203 206 208 212 213 214 216 218 220 223 222 219 219 222 227 230 230 229 228 229 231 234 233 233 236 241 245 247 250 253 255 256 257 258 260 266 272 271 267 267 268 269 270 272 276 281 286 291 296 299 300 298 297 297 298 299
155 163 168 170 176 183 188 191 195 200 203 204 204 203 203 202 202 201 200 199 199 201 203 204 205 206 205 206 206 202 198 200 204 208 212 214 215 217 219 221 225 227 227 226 228 231 234 236 237 237 238 238 237 236 235 236 240 244 247 249 253 256 257 258 257 259 264 269 271 269 270 271 272 272 271 272 275 279 284 290 294 295 295 294 294 295 296
160 164 166 169 174 181 187 191 194 198 202 204 204 204 203 203 202 201 201 202 202 201 202 203 205 205 205 206 207 204 201 201 204 208 212 215 215 216 219 221 224 228 230 232 234 236 238 240 241 242 243 242 240 238 238 238 240 243 246 249 252 254 256 257 258 260 263 266 267 267 268 271 273 274 274 274 275 278 282 286 290 291 292 292 292 293 293
167 167 169 173 176 181 187 191 194 198 201 203 204 204 204 204 204 202 202 203 205 205 204 204 204 205 205 205 207 206 204 204 206 209 213 215 217 218 220 222 224 228 231 233 236 239 240 242 243 243 243 242 241 239 238 239 240 243 246 249 252 255 256 257 258 259 260 262 263 264 265 267 270 273 275 276 277 279 281 283 286 288 288 289 290 291 291
172 171 172 175 179 182 187 191 196 199 201 203 204 205 205 206 206 205 204 204 206 208 208 207 206 206 207 207 207 208 207 207 208 210 212 216 218 220 222 225 226 229 231 233 236 239 241 242 243 241 240 240 239 238 238 238 239 241 245 249 252 255 257 258 259 259 260 261 264 266 267 268 269 270 273 275 277 278 280 282 283 284 285 286 288 288 288
177 175 176 178 181 185 188 192 197 200 201 203 204 206 208 208 208 208 208 207 208 209 211 212 211 209 209 209 209 210 210 211 212 213 215 217 219 221 223 226 228 229 231 233 234 236 238 239 239 238 237 238 240 242 242 243 244 245 247 250 252 254 256 256 257 258 260 263 265 268 269 270 269 269 270 272 274 276 279 280 281 282 283 285 286 286 286
181 180 181 183 185 188 190 193 198 201 202 202 204 207 209 210 211 211 211 211 211 211 213 215 215 213 211 211 211 212 212 213 214 216 218 220 222 222 223 225 228 229 231 232 233 235 236 237 237 238 239 241 245 248 249 250 251 252 253 253 253 253 253 253 254 256 258 261 264 266 267 269 269 268 269 270 271 274 277 278 279 281 283 284 285 285 284
186 184 185 188 190 193 194 196 199 201 201 202 204 207 209 211 212 212 213 213 213 213 215 217 218 218 217 216 215 214 215 216 217 218 220 221 223 224 225 226 227 229 231 233 234 235 236 237 238 240 242 245 248 252 253 253 254 254 254 253 252 251 250 251 253 255 257 259 261 263 265 266 268 269 270 270 271 273 274 276 278 280 282 283 283 283 283
189 184 187 191 193 196 199 199 200 200 200 200 203 207 210 212 212 213 214 215 215 216 217 218 220 222 223 222 221 220 219 220 220 221 222 223 224 226 227 229 230 231 233 234 235 235 236 238 240 242 244 247 250 252 253 254 253 252 252 251 250 250 251 252 253 254 256 258 260 261 263 265 267 269 270 271 271 272 273 274 276 278 280 281 282 282 282
192 188 189 191 193 196 199 200 200 201 199 198 198 201 206 210 212 212 213 214 216 217 218 220 222 224 226 227 226 225 224 224 224 225 225 226 227 228 230 232 233 235 236 237 238 239 240 242 244 245 247 249 251 253 253 253 253 252 252 251 251 251 253 254 255 255 257 258 259 260 261 263 265 267 269 270 271 271 273 274 276 277 279 280 280 281 281
199 195 193 193 194 197 199 200 200 200 199 199 198 198 200 203 207 210 212 213 215 217 218 220 222 225 227 229 230 229 228 228 228 228 229 230 230 232 233 234 236 238 240 241 243 244 245 247 248 250 251 252 253 253 253 253 253 253 253 253 253 253 255 256 257 258 259 260 261 261 262 262 263 265 267 269 270 272 273 274 276 277 278 279 280 280 281
208 204 201 198 197 199 201 202 202 201 200 200 200 200 200 201 202 206 209 211 212 214 216 218 220 223 225 228 230 231 232 232 232 232 233 233 233 234 236 237 238 240 241 243 245 246 248 249 250 251 252 252 253 253 253 252 252 252 252 253 254 254 255 256 257 259 260 261 262 263 263 263 263 264 265 267 269 271 273 274 275 277 278 279 280 280 280
216 212 208 203 201 201 202 204 206 205 204 203 203 203 204 204 205 206 208 209 211 212 213 215 218 220 223 226 229 231 232 233 234 235 236 236 236 237 237 239 240 241 242 243 245 246 247 248 249 249 250 250 251 251 251 251 252 252 253 254 254 255 256 257 258 259 260 261 262 263 264 264 263 263 264 265 267 269 271 272 274 275 277 278 278 279 279
223 220 215 209 206 206 206 207 207 208 208 207 206 206 207 208 209 211 212 214 214 215 215 216 217 218 221 224 227 230 232 233 234 236 237 238 239 239 239 240 241 242 242 243 244 245 246 246 247 248 248 248 249 249 250 250 251 252 253 254 255 256 257 257 258 259 261 261 262 263 264 264 264 265 265 266 267 268 270 271 272 273 275 276 277 278 278
228 228 225 217 211 209 210 211 211 211 210 210 210 211 212 212 213 213 215 217 218 220 222 222 222 222 223 224 227 230 232 234 236 237 238 240 241 242 242 242 243 243 243 244 245 246 247 247 248 248 248 248 249 250 250 251 252 252 253 254 255 256 257 258 259 260 261 262 262 263 263 264 265 266 267 267 268 269 270 271 272 273 274 275 276 277 277
230 231 231 228 221 215 214 214 214 214 214 213 213 213 214 216 216 217 218 219 220 222 224 226 228 229 230 230 231 233 234 236 238 240 241 243 244 245 246 246 246 246 246 247 247 249 249 249 249 249 250 249 250 250 251 252 253 253 254 255 256 257 258 259 259 260 261 262 263 263 263 264 265 266 267 268 269 270 271 272 273 274 274 275 276 276 277
231 233 234 233 230 225 220 218 217 217 217 217 217 216 216 217 218 220 221 222 222 224 225 228 230 232 234 236 237 238 238 239 240 242 244 245 246 247 248 249 250 250 250 250 250 251 251 251 251 251 252 252 251 251 252 253 254 255 256 256 257 258 259 260 260 261 261 262 263 264 264 265 266 267 268 269 270 270 271 272 273 274 275 276 276 277 277
231 233 235 235 234 232 228 224 221 219 219 219 220 220 220 220 220 221 222 224 225 226 227 229 230 233 235 237 239 240 241 242 243 244 245 246 247 248 249 250 251 251 252 253 253 253 253 254 254 254 254 254 254 255 255 256 256 257 257 258 259 260 260 261 262 262 263 263 264 265 266 267 267 268 269 270 271 272 273 273 274 275 275 276 276 276 276
229 230 233 235 235 235 233 231 228 224 222 221 221 222 223 223 223 224 224 225 226 227 228 230 231 233 235 236 238 240 242 244 245 246 247 248 249 250 251 252 252 252 252 253 254 254 255 255 255 255 255 255 255 255 256 257 258 259 259 260 261 262 263 264 264 265 266 266 267 268 268 269 270 271 271 272 273 273 274 274 275 275 275 276 276 276 275
228 230 231 233 235 235 235 235 233 231 228 226 225 225 224 225 226 226 227 228 228 229 230 231 233 234 236 237 238 240 241 243 245 246 247 248 249 251 252 253 254 255 255 254 255 255 256 256 256 256 256 256 255 256 256 257 258 259 260 261 262 264 265 266 267 268 268 269 270 270 271 271 272 272 272 273 273 274 274 274 275 275 276 276 276 276 276
225 228 230 232 234 235 235 235 235 234 233 231 230 229 228 228 228 229 229 230 231 231 232 233 235 236 237 238 239 240 241 243 244 245 246 248 249 250 251 252 254 255 256 257 257 257 258 258 258 258 259 259 259 259 259 259 260 261 262 263 264 265 267 268 268 269 270 270 270 271 271 272 272 272 273 273 273 273 274 274 274 275 275 275 275 275 276
221 224 226 228 230 233 234 235 235 235 234 234 233 233 232 232 232 233 233 233 233 234 234 235 237 238 239 240 241 242 243 244 245 246 247 248 249 250 251 252 254 255 256 257 258 258 259 259 260 260 261 261 261 261 262 262 263 264 264 265 266 267 268 269 269 270 270 271 271 272 272 272 273 273 273 273 274 274 274 274 274 274 275 275 275 275 275
219 220 221 223 225 228 230 232 233 234 235 235 235 235 236 236 236 237 237 237 237 237 237 237 238 239 241 242 243 244 245 247 248 248 249 250 251 252 253 254 255 255 257 258 259 259 260 261 261 262 262 263 263 263 264 264 265 266 266 267 268 269 270 270 271 271 271 272 272 272 273 273 273 274 274 274 274 274 274 274 274 274 274 274 274 274 274
220 220 220 220 221 223 225 227 229 231 232 234 235 236 237 238 238 239 239 240 240 240 240 240 240 241 242 243 244 245 246 248 249 250 251 252 253 254 254 255 256 257 258 259 260 261 262 262 263 264 264 265 265 265 266 266 267 267 268 268 269 269 270 271 271 271 272 272 272 273 273 273 273 273 273 273 273 273 273 273 273 273 273 273 273 272 272
221 221 221 221 221 222 223 224 225 227 228 230 232 234 235 237 238 238 239 240 240 241 242 242 243 243 244 245 246 247 247 248 249 250 251 252 254 255 256 256 257 258 259 260 261 262 263 263 264 265 265 266 266 267 267 268 268 269 269 269 270 270 271 271 271 271 272 272 272 272 272 272 272 272 272 272 271 271 271 271 272 272 272 272 272 272 271
223 223 223 223 223 223 224 224 224 225 227 228 230 231 233 234 236 237 238 239 240 241 242 243 243 244 245 246 247 248 249 250 250 251 252 253 254 255 256 257 258 259 260 261 261 262 263 264 264 265 266 266 267 267 268 268 269 269 269 270 270 270 271 271 271 271 271 271 271 271 271 271 271 271 271 271 271 270 270 270 270 270 271 271 271 272 272
225 226 226 226 226 226 226 226 226 227 228 229 230 231 233 234 236 237 238 239 240 241 242 243 244 245 246 247 248 249 250 251 252 253 254 254 255 256 257 258 258 259 260 261 262 263 263 264 264 265 266 266 267 267 268 268 269 269 269 269 269 270 270 270 270 271 271 270 270 270 269 270 270 270 269 269 270 270 271 271 270 270 271 271 271 271 272
227 228 229 229 230 230 230 230 230 230 231 232 232 234 235 236 237 239 240 241 242 243 244 245 246 247 248 249 250 251 252 253 254 254 255 256 257 257 258 259 259 260 260 261 262 263 264 264 265 266 266 267 267 267 268 268 269 269 270 269 269 269 269 269 269 269 270 270 269 269 269 269 269 269 269 268 268 269 269 269 270 270 271 271 271 272 272
227 228 229 231 232 232 233 234 234 234 235 235 235 236 237 238 239 240 241 242 244 245 246 247 248 249 251 252 253 254 255 256 257 257 258 259 259 260 260 261 261 262 262 262 263 264 265 265 265 266 266 267 268 268 268 269 269 269 270 270 270 270 270 269 268 268 268 269 269 269 269 268 268 268 268 267 267 267 268 268 268 269 269 269 270 270 271
227 228 229 230 232 233 234 235 235 236 237 237 238 238 239 239 240 240 241 242 244 246 247 248 250 251 253 255 256 257 258 259 259 260 261 262 262 263 263 264 264 264 265 265 265 266 267 267 267 268 268 268 269 269 269 270 270 269 270 270 270 270 270 270 270 269 269 269 269 269 268 268 268 268 267 267 267 267 267 267 268 268 268 268 268 268 269
226 227 228 229 231 232 234 234 235 236 237 237 238 238 239 240 240 240 241 243 245 247 249 251 252 254 255 257 258 259 259 260 260 261 262 263 264 264 265 265 266 266 267 267 267 267 267 268 268 268 269 269 269 269 270 270 270 271 270 270 270 270 270 271 271 271 271 270 270 270 269 269 269 268 268 268 267 267 266 266 266 266 267 267 268 268 268
226 227 228 229 230 231 233 234 235 236 236 237 237 238 239 240 241 241 242 244 246 248 250 252 254 256 258 258 259 260 260 260 261 261 262 263 264 265 266 266 267 267 267 267 267 267 267 267 268 268 268 269 269 269 270 270 271 271 271 271 271 271 271 272 272 272 272 271 271 271 270 270 269 269 269 269 269 268 268 267 266 266 266 266 267 267 268
227 228 228 229 230 231 232 233 234 235 236 237 238 239 240 241 242 243 244 245 247 249 251 253 255 256 258 259 260 261 261 261 261 261 263 264 265 266 267 267 268 268 268 268 267 267 267 267 268 268 269 270 270 270 271 271 272 272 272 272 272 272 272 272 272 272 272 272 272 271 271 270 270 270 270 270 269 269 269 268 268 268 268 268 268 268 268
Height
10360 10368 10376 10384 10392 10401 10409 10418 10426 10433 10442 10451 10457 10464 10475 10489 10502 10514 10526 10538 10548 10555 10561 10568 10574 10580 10586 10592 10596 10599 10601 10604 10609 10615 10619 10623 10627 10630 10633 10635 10638 10640 10642 10645 10647 10650 10653 10654 10656 10658 10660 10662 10663 10664 10665 10666 10666 10667 10667 10667 10666 10666 10665 10665 10664 10663 10663 10663 10662 10661 10660 10659 10659 10659 10659 10658 10659 10660 10661 10663 10666 10669 10671 10671 10671 10671 10673
10361 10368 10376 10384 10392 10401 10410 10420 10428 10435 10442 10448 10453 10463 10476 10490 10501 10512 10523 10535 10544 10552 10559 10567 10573 10579 10585 10591 10595 10598 10599 10602 10606 10611 10616 10620 10624 10627 10630 10633 10635 10637 10640 10643 10645 10648 10650 10651 10653 10655 10656 10658 10659 10660 10661 10662 10663 10663 10664 10664 10663 10663 10662 10662 10661 10661 10660 10660 10659 10658 10657 10657 10657 10657 10656 10656 10656 10657 10658 10659 10662 10664 10666 10667 10667 10668 10669
10361 10367 10375 10384 10394 10402 10410 10418 10427 10436 10442 10448 10456 10468 10480 10490 10499 10510 10521 10532 10542 10551 10558 10563 10568 10575 10582 10587 10591 10593 10595 10598 10602 10607 10612 10617 10621 10625 10628 10630 10633 10635 10638 10641 10643 10645 10646 10647 10649 10651 10652 10654 10655 10657 10658 10658 10659 10659 10660 10660 10660 10659 10659 10659 10659 10658 10658 10657 10656 10656 10655 10654 10655 10655 10654 10654 10654 10655 10655 10656 10657 10659 10661 10662 10663 10664 10664
10364 10370 10378 10388 10396 10404 10412 10419 10427 10435 10443 10453 10464 10476 10484 10490 10498 10508 10518 10529 10539 10548 10554 10557 10562 10570 10577 10582 10585 10588 10590 10593 10598 10604 10609 10613 10617 10620 10624 10627 10631 10633 10636 10638 10639 10641 10642 10643 10645 10646 10648 10649 10651 10652 10653 10654 10655 10655 10656 10657 10657 10656 10656 10656 10656 10655 10655 10654 10654 10653 10652 10652 10652 10652 10652 10652 10651 10652 10652 10652 10653 10654 10656 10657 10658 10659 10658
10368 10375 10384 10391 10398 10405 10413 10419 10426 10435 10446 10458 10471 10482 10488 10493 10499 10508 10517 10525 10532 10540 10546 10551 10557 10565 10571 10576 10580 10584 10587 10590 10594 10600 10605 10610 10614 10617 10620 10623 10626 10629 10632 10634 10635 10637 10638 10638 10640 10642 10644 10646 10647 10648 10649 10650 10650 10651 10652 10653 10653 10652 10652 10652 10652 10652 10651 10651 10651 10651 10650 10650 10650 10650 10650 10649 10649 10649 10649 10649 10649 10650 10651 10652 10653 10654 10653
10369 10377 10385 10392 10399 10405 10412 10418 10427 10438 10448 10461 10475 10485 10490 10494 10500 10507 10514 10522 10529 10535 10540 10545 10552 10559 10566 10572 10577 10581 10585 10588 10592 10597 10602 10606 10610 10614 10618 10621 10623 10626 10629 10631 10632 10632 10633 10634 10636 10639 10640 10642 10643 10644 10645 10645 10646 10647 10648 10648 10648 10648 10648 10648 10648 10648 10647 10647 10648 10648 10648 10648 10648 10647 10647 10647 10646 10646 10646 10646 10646 10646 10647 10647 10648 10649 10649
10370 10377 10385 10393 10401 10408 10413 10419 10429 10439 10449 10461 10474 10482 10487 10492 10497 10503 10510 10519 10527 10533 10538 10542 10547 10553 10560 10567 10572 10577 10582 10587 10591 10595 10599 10603 10607 10611 10615 10619 10622 10624 10626 10628 10629 10629 10630 10632 10634 10636 10636 10637 10639 10640 10641 10641 10642 10643 10644 10644 10644 10644 10644 10644 10644 10644 10643 10643 10644 10644 10645 10645 10645 10644 10644 10643 10643 10643 10642 10642 10641 10642 10642 10643 10643 10644 10645
10372 10379 10387 10395 10401 10406 10412 10421 10430 10439 10449 10461 10471 10477 10482 10487 10493 10499 10507 10516 10524 10529 10533 10537 10542 10547 10554 10561 10567 10573 10579 10584 10588 10592 10596 10600 10604 10608 10612 10615 10618 10621 10624 10627 10629 10629 10629 10630 10631 10631 10632 10633 10634 10635 10636 10637 10637 10638 10639 10639 10639 10639 10639 10639 10639 10639 10639 10640 10641 10641 10641 10641 10641 10640 10640 10640 10640 10640 10639 10638 10637 10637 10638 10639 10639 10639 10640
10374 10381 10389 10394 10398 10404 10411 10420 10430 10440 10450 10460 10468 10474 10478 10483 10491 10499 10507 10514 10520 10525 10528 10533 10538 10544 10551 10557 10563 10569 10575 10580 10585 10590 10593 10597 10601 10605 10608 10611 10615 10618 10621 10624 10626 10626 10626 10626 10627 10627 10628 10629 10630 10631 10632 10633 10633 10633 10633 10634 10634 10634 10635 10635 10635 10635 10635 10635 10637 10637 10637 10637 10636 10636 10636 10636 10636 10636 10636 10635 10633 10633 10633 10635 10636 10636 10635
10375 10381 10387 10393 10398 10405 10410 10416 10426 10438 10448 10456 10464 10470 10475 10481 10490 10499 10507 10513 10519 10523 10527 10532 10537 10543 10549 10556 10561 10567 10572 10577 10582 10586 10590 10594 10598 10602 10606 10610 10613 10614 10615 10616 10618 10619 10620 10621 10621 10622 10623 10625 10626 10628 10628 10628 10627 10627 10627 10627 10628 10629 10630 10630 10630 10631 10631 10631 10632 10633 10634 10633 10632 10632 10632 10632 10632 10632 10632 10631 10630 10629 10629 10630 10630 10631 10631
10376 10381 10387 10393 10399 10405 10411 10417 10425 10434 10443 10451 10459 10468 10476 10482 10489 10496 10504 10512 10518 10522 10527 10532 10537 10543 10549 10556 10561 10566 10570 10575 10579 10583 10587 10591 10595 10600 10604 10608 10612 10613 10612 10610 10610 10612 10614 10615 10616 10618 10619 10621 10623 10623 10623 10622 10622 10621 10621 10621 10622 10625 10625 10625 10625 10627 10628 10628 10629 10629 10630 10629 10628 10628 10628 10628 10628 10628 10628 10627 10627 10626 10625 10625 10626 10626 10626
10378 10383 10389 10394 10399 10406 10412 10419 10426 10433 10438 10447 10457 10468 10476 10483 10488 10495 10502 10510 10516 10520 10526 10531 10537 10543 10549 10555 10560 10564 10569 10573 10577 10581 10585 10589 10593 10597 10601 10605 10608 10608 10604 10603 10605 10608 10610 10612 10614 10615 10616 10618 10620 10620 10620 10618 10617 10617 10617 10616 10618 10621 10622 10621 10621 10622 10624 10625 10626 10626 10626 10625 10625 10625 10625 10625 10625 10624 10624 10623 10622 10622 10621 10621 10621 10621 10621
10378 10384 10389 10394 10400 10406 10413 10419 10427 10434 10440 10448 10458 10467 10474 10480 10486 10492 10500 10508 10514 10519 10525 10531 10536 10542 10548 10553 10558 10562 10567 10571 10574 10578 10582 10586 10590 10593 10596 10598 10598 10595 10593 10596 10600 10604 10606 10609 10611 10612 10613 10616 10617 10619 10618 10616 10613 10613 10613 10614 10616 10618 10618 10618 10618 10618 10619 10620 10621 10622 10622 10622 10622 10622 10621 10621 10621 10620 10620 10619 10618 10617 10617 10616 10617 10616 10616
10379 10384 10389 10394 10399 10406 10411 10418 10427 10435 10441 10449 10456 10463 10469 10476 10482 10489 10497 10504 10511 10517 10524 10530 10536 10541 10545 10551 10556 10560 10564 10567 10571 10575 10579 10582 10586 10588 10589 10590 10589 10588 10589 10593 10597 10599 10602 10605 10607 10608 10610 10611 10612 10613 10612 10611 10611 10610 10609 10610 10613 10614 10614 10614 10614 10614 10615 10615 10616 10617 10617 10618 10619 10618 10618 10617 10616 10616 10615 10615 10614 10613 10612 10612 10612 10612 10612
10380 10386 10390 10395 10400 10406 10411 10418 10427 10435 10441 10447 10452 10458 10465 10473 10479 10486 10494 10501 10508 10515 10522 10528 10534 10539 10544 10549 10553 10557 10560 10564 10567 10571 10575 10577 10579 10581 10581 10582 10583 10585 10586 10590 10593 10595 10597 10600 10602 10603 10603 10604 10605 10606 10605 10607 10610 10611 10609 10608 10608 10609 10609 10609 10608 10609 10611 10611 10611 10612 10613 10615 10615 10615 10614 10613 10612 10611 10611 10610 10610 10609 10607 10606 10607 10608 10608
10382 10387 10392 10397 10402 10407 10413 10419 10427 10433 10439 10445 10450 10455 10463 10469 10476 10484 10491 10499 10506 10514 10520 10526 10531 10536 10541 10545 10548 10552 10555 10559 10563 10566 10568 10570 10571 10573 10573 10574 10577 10579 10581 10584 10587 10589 10591 10594 10595 10597 10598 10600 10602 10603 10603 10604 10606 10607 10606 10604 10604 10604 10604 10603 10603 10604 10606 10607 10607 10608 10610 10611 10611 10611 10610 10609 10607 10606 10606 10606 10605 10604 10602 10601 10602 10603 10603
10382 10388 10393 10398 10404 10409 10415 10421 10427 10433 10438 10442 10448 10454 10461 10467 10473 10481 10488 10496 10505 10512 10518 10523 10527 10530 10533 10536 10540 10546 10551 10554 10557 10559 10560 10562 10564 10566 10568 10569 10571 10573 10575 10577 10580 10583 10585 10588 10590 10592 10594 10596 10598 10599 10600 10601 10601 10602 10600 10599 10599 10600 10600 10599 10599 10601 10603 10604 10605 10605 10606 10607 10607 10606 10605 10604 10602 10601 10601 10601 10600 10599 10598 10596 10597 10598 10599
10383 10388 10394 10400 10406 10412 10416 10422 10428 10433 10438 10442 10448 10454 10460 10466 10472 10479 10486 10494 10502 10509 10514 10518 10521 10525 10528 10531 10536 10542 10546 10548 10549 10550 10551 10555 10558 10559 10561 10563 10565 10567 10569 10572 10575 10578 10579 10582 10585 10587 10589 10591 10592 10594 10595 10596 10597 10597 10596 10595 10595 10596 10596 10596 10597 10598 10600 10601 10602 10601 10602 10602 10602 10601 10600 10599 10597 10596 10595 10595 10595 10595 10593 10591 10591 10593 10594
10384 10388 10393 10399 10406 10411 10415 10420 10426 10432 10437 10442 10448 10454 10460 10465 10471 10478 10485 10493 10501 10505 10508 10510 10513 10517 10522 10526 10532 10537 10539 10540 10541 10542 10544 10547 10550 10552 10555 10557 10560 10563 10566 10568 10571 10573 10574 10576 10579 10582 10584 10585 10586 10588 10590 10590 10591 10593 10592 10591 10590 10591 10593 10594 10594 10595 10596 10598 10598 10598 10597 10597 10597 10597 10596 10594 10593 10591 10590 10590 10590 10590 10588 10587 10586 10587 10588
10384 10388 10392 10397 10403 10408 10412 10417 10423 10427 10431 10438 10445 10451 10457 10464 10470 10476 10484 10490 10495 10497 10499 10502 10506 10510 10515 10520 10525 10529 10531 10531 10533 10534 10536 10539 10544 10547 10550 10552 10555 10558 10561 10563 10565 10567 10569 10571 10573 10575 10578 10580 10582 10583 10585 10586 10586 10588 10589 10587 10585 10586 10588 10590 10590 10590 10591 10593 10594 10593 10592 10592 10592 10591 10591 10590 10589 10588 10587 10586 10585 10584 10583 10582 10581 10581 10582
10384 10387 10391 10395 10400 10405 10409 10413 10418 10421 10425 10432 10439 10446 10453 10459 10465 10472 10477 10480 10483 10485 10489 10494 10500 10505 10510 10513 10517 10521 10523 10524 10526 10527 10530 10534 10539 10541 10544 10547 10550 10552 10555 10557 10559 10561 10562 10564 10566 10569 10571 10575 10577 10579 10581 10581 10581 10582 10583 10582 10580 10581 10583 10585 10585 10585 10586 10587 10588 10588 10587 10586 10585 10585 10584 10584 10584 10583 10583 10582 10580 10579 10578 10577 10576 10576 10576
10384 10386 10389 10393 10396 10400 10404 10408 10412 10416 10421 10427 10433 10440 10447 10453 10459 10465 10469 10473 10475 10477 10481 10486 10492 10498 10503 10507 10510 10514 10517 10518 10520 10522 10525 10529 10533 10535 10538 10541 10544 10546 10548 10550 10552 10554 10556 10558 10560 10562 10565 10568 10571 10574 10575 10576 10577 10577 10578 10577 10575 10576 10577 10579 10580 10580 10580 10581 10582 10582 10582 10581 10580 10579 10578 10577 10578 10577 10577 10576 10575 10574 10573 10572 10571 10571 10570
10383 10386 10389 10392 10395 10398 10401 10405 10408 10411 10415 10421 10427 10434 10442 10447 10452 10458 10463 10467 10470 10473 10476 10481 10486 10491 10496 10501 10505 10508 10511 10513 10515 10518 10520 10524 10527 10530 10533 10536 10538 10540 10542 10544 10545 10547 10549 10551 10554 10557 10559 10562 10564 10567 10569 10570 10571 10571 10571 10571 10570 10570 10571 10572 10573 10573 10574 10575 10576 10576 10576 10576 10575 10574 10572 10571 10571 10570 10570 10570 10569 10569 10568 10567 10566 10566 10565
10383 10386 10390 10393 10396 10398 10401 10404 10406 10409 10413 10419 10425 10431 10437 10442 10448 10453 10458 10462 10466 10470 10474 10478 10482 10487 10491 10495 10499 10503 10506 10509 10512 10514 10516 10519 10522 10525 10528 10530 10533 10535 10536 10537 10539 10541 10543 10546 10549 10551 10554 10556 10558 10560 10562 10563 10564 10564 10564 10564 10564 10564 10564 10565 10565 10566 10567 10568 10569 10569 10570 10570 10570 10569 10567 10565 10564 10563 10562 10562 10563 10562 10562 10562 10561 10560 10560
10383 10387 10390 10392 10395 10398 10400 10403 10405 10409 10414 10419 10424 10429 10434 10439 10444 10449 10454 10458 10462 10467 10472 10475 10479 10483 10487 10491 10494 10497 10500 10503 10506 10508 10510 10512 10515 10518 10520 10523 10525 10527 10530 10531 10533 10536 10538 10541 10544 10546 10548 10550 10551 10553 10555 10556 10557 10558 10558 10558 10559 10559 10559 10559 10559 10559 10560 10561 10561 10562 10563 10563 10563 10562 10561 10560 10558 10556 10555 10555 10555 10555 10555 10555 10555 10555 10554
10383 10386 10389 10392 10395 10397 10400 10402 10405 10408 10413 10418 10422 10426 10431 10436 10440 10445 10450 10454 10459 10463 10467 10470 10473 10477 10481 10483 10486 10489 10492 10496 10499 10502 10504 10506 10509 10511 10513 10516 10518 10521 10524 10526 10528 10531 10534 10536 10538 10540 10541 10543 10544 10546 10547 10548 10549 10550 10551 10552 10552 10552 10553 10553 10553 10553 10553 10554 10555 10555 10555 10556 10555 10555 10554 10553 10552 10550 10548 10547 10547 10548 10548 10548 10548 10547 10547
10385 10387 10390 10392 10395 10397 10399 10402 10405 10408 10412 10416 10420 10423 10427 10431 10436 10441 10445 10450 10454 10458 10462 10464 10467 10471 10474 10476 10480 10484 10488 10491 10494 10497 10500 10502 10505 10506 10508 10510 10513 10516 10519 10521 10524 10526 10529 10530 10532 10533 10534 10536 10537 10538 10539 10540 10542 10542 10543 10544 10544 10545 10546 10546 10546 10546 10547 10547 10547 10548 10548 10548 10547 10547 10546 10545 10544 10543 10542 10541 10540 10540 10541 10541 10541 10540 10540
10386 10389 10390 10392 10394 10397 10399 10401 10404 10407 10410 10414 10418 10421 10425 10428 10432 10436 10440 10445 10449 10453 10456 10459 10461 10464 10467 10471 10476 10482 10486 10489 10493 10495 10498 10500 10501 10503 10504 10506 10508 10511 10513 10515 10518 10520 10522 10524 10525 10526 10528 10529 10530 10531 10532 10533 10534 10535 10536 10537 10537 10538 10538 10539 10539 10539 10540 10540 10540 10540 10539 10539 10539 10538 10537 10537 10537 10536 10535 10534 10534 10534 10534 10534 10534 10533 10532
10385 10387 10389 10391 10393 10395 10397 10400 10402 10405 10409 10412 10415 10418 10422 10425 10429 10432 10436 10439 10443 10447 10450 10453 10456 10459 10461 10466 10471 10476 10480 10484 10488 10490 10493 10495 10497 10499 10500 10502 10504 10505 10507 10509 10511 10514 10515 10517 10518 10519 10521 10522 10523 10524 10525 10526 10526 10527 10528 10529 10530 10530 10530 10531 10531 10532 10532 10532 10532 10532 10531 10531 10531 10530 10529 10529 10529 10528 10528 10527 10527 10527 10526 10526 10526 10526 10525
10383 10385 10387 10389 10392 10394 10396 10398 10401 10403 10406 10409 10412 10415 10418 10421 10425 10428 10432 10435 10438 10442 10445 10448 10451 10453 10456 10459 10463 10467 10472 10476 10480 10482 10485 10488 10491 10493 10495 10496 10498 10499 10500 10502 10504 10506 10508 10509 10511 10512 10513 10514 10515 10516 10517 10518 10518 10519 10520 10521 10521 10522 10522 10522 10523 10523 10524 10524 10524 10523 10523 10523 10522 10522 10521 10521 10521 10521 10520 10520 10519 10518 10518 10518 10518 10518 10517
10381 10383 10385 10388 10391 10393 10396 10398 10400 10402 10405 10407 10410 10412 10415 10418 10421 10424 10427 10430 10434 10437 10440 10443 10446 10448 10450 10452 10454 10459 10463 10467 10471 10474 10477 10479 10482 10485 10487 10489 10490 10491 10493 10495 10496 10498 10500 10501 10503 10503 10504 10505 10506 10507 10508 10509 10510 10511 10511 10512 10513 10513 10514 10514 10515 10515 10515 10515 10514 10515 10514 10514 10514 10513 10513 10513 10513 10513 10512 10512 10510 10510 10510 10509 10509 10509 10509
10379 10381 10384 10387 10390 10392 10394 10396 10398 10400 10403 10406 10408 10411 10413 10416 10419 10421 10423 10426 10429 10432 10435 10438 10440 10442 10444 10446 10448 10452 10456 10459 10462 10464 10467 10470 10473 10476 10478 10479 10481 10483 10485 10487 10488 10490 10492 10493 10494 10495 10496 10496 10497 10498 10499 10500 10501 10502 10503 10504 10504 10504 10505 10506 10507 10507 10506 10506 10506 10506 10506 10505 10505 10505 10504 10504 10504 10504 10504 10503 10502 10501 10501 10501 10500 10499 10499
10376 10378 10381 10385 10388 10390 10392 10393 10395 10398 10401 10404 10406 10409 10411 10414 10416 10418 10421 10423 10425 10428 10430 10432 10435 10437 10439 10441 10443 10446 10449 10452 10454 10456 10459 10461 10464 10466 10468 10470 10472 10475 10477 10479 10480 10482 10484 10485 10486 10487 10487 10488 10488 10489 10490 10491 10492 10493 10494 10494 10495 10495 10496 10497 10498 10498 10497 10497 10497 10497 10497 10496 10496 10496 10496 10496 10495 10495 10495 10494 10493 10493 10493 10492 10491 10490 10489
10373 10375 10377 10381 10384 10387 10389 10391 10393 10395 10398 10401 10404 10406 10408 10411 10413 10415 10418 10420 10422 10424 10426 10428 10430 10432 10434 10436 10438 10441 10443 10446 10448 10450 10453 10455 10456 10458 10460 10462 10464 10467 10469 10471 10473 10474 10476 10477 10477 10478 10479 10480 10481 10481 10482 10483 10484 10484 10485 10485 10486 10486 10487 10488 10489 10489 10488 10488 10488 10488 10488 10488 10488 10487 10487 10487 10486 10486 10486 10485 10484 10484 10484 10483 10481 10481 10479
10370 10372 10373 10376 10380 10383 10386 10388 10390 10393 10395 10398 10401 10403 10405 10407 10409 10412 10414 10416 10419 10421 10423 10425 10427 10428 10430 10432 10434 10437 10439 10441 10443 10445 10447 10448 10450 10451 10452 10454 10457 10459 10461 10463 10465 10466 10467 10468 10469 10469 10470 10472 10473 10473 10474 10474 10475 10476 10476 10476 10477 10477 10478 10479 10480 10480 10480 10479 10479 10479 10479 10480 10480 10479 10479 10478 10477 10477 10478 10476 10475 10474 10474 10473 10472 10470 10469
10367 10368 10370 10372 10375 10379 10382 10384 10387 10389 10392 10394 10397 10399 10401 10403 10406 10408 10410 10413 10415 10417 10419 10421 10423 10425 10426 10428 10430 10432 10434 10436 10437 10439 10440 10442 10443 10444 10445 10447 10449 10451 10453 10455 10456 10457 10458 10459 10461 10462 10462 10463 10465 10465 10466 10467 10467 10467 10468 10468 10468 10469 10469 10470 10470 10471 10471 10471 10470 10470 10470 10471 10471 10471 10470 10469 10468 10467 10467 10467 10466 10464 10463 10463 10462 10461 10460
10363 10365 10366 10368 10371 10373 10376 10379 10382 10384 10387 10390 10392 10394 10397 10399 10402 10404 10406 10408 10411 10413 10415 10417 10418 10420 10421 10423 10424 10426 10427 10429 10431 10432 10434 10435 10436 10437 10438 10439 10441 10443 10445 10446 10447 10448 10449 10451 10452 10453 10454 10455 10456 10457 10457 10458 10458 10458 10459 10459 10459 10460 10460 10460 10461 10462 10462 10462 10461 10461 10461 10461 10462 10461 10460 10459 10458 10457 10457 10457 10456 10455 10453 10452 10452 10451 10450
10358 10360 10362 10364 10366 10368 10371 10374 10376 10379 10382 10385 10387 10389 10392 10395 10397 10400 10402 10404 10406 10408 10410 10411 10413 10414 10416 10418 10419 10420 10421 10423 10424 10426 10427 10428 10429 10430 10431 10431 10432 10435 10437 10438 10438 10440 10441 10442 10443 10444 10445 10446 10447 10447 10448 10448 10449 10449 10449 10449 10450 10450 10450 10451 10451 10452 10452 10452 10452 10452 10451 10451 10452 10452 10451 10449 10448 10447 10447 10446 10445 10444 10444 10443 10441 10440 10440
10354 10356 10358 10359 10361 10364 10366 10368 10371 10373 10376 10379 10381 10384 10386 10389 10392 10394 10396 10398 10400 10403 10405 10406 10407 10409 10410 10412 10413 10414 10415 10417 10418 10419 10420 10421 10422 10423 10424 10424 10424 10425 10427 10429 10431 10432 10432 10433 10434 10436 10437 10437 10438 10438 10439 10439 10439 10439 10439 10439 10440 10440 10440 10441 10441 10442 10442 10442 10442 10442 10441 10441 10441 10441 10440 10439 10438 10437 10437 10436 10435 10435 10434 10433 10431 10430 10430
10349 10351 10353 10355 10357 10359 10361 10363 10365 10368 10370 10373 10375 10378 10380 10383 10385 10387 10389 10392 10394 10396 10398 10400 10401 10402 10404 10405 10406 10408 10409 10410 10411 10413 10414 10414 10415 10416 10417 10417 10417 10417 10418 10420 10422 10423 10423 10424 10425 10427 10427 10428 10428 10429 10429 10429 10429 10429 10429 10429 10430 10430 10430 10430 10431 10431 10432 10432 10432 10431 10431 10430 10430 10430 10430 10429 10428 10427 10427 10427 10426 10425 10424 10424 10422 10421 10421
10345 10347 10348 10350 10352 10354 10356 10358 10360 10362 10365 10367 10370 10372 10374 10377 10379 10381 10383 10385 10387 10390 10392 10393 10394 10395 10396 10398 10399 10401 10402 10403 10405 10406 10407 10407 10408 10409 10410 10410 10410 10410 10410 10411 10412 10413 10414 10415 10416 10417 10417 10418 10418 10418 10419 10419 10419 10419 10419 10419 10419 10419 10418 10419 10419 10420 10421 10421 10421 10420 10420 10420 10419 10419 10419 10419 10418 10417 10416 10416 10416 10415 10415 10414 10413 10413 10412
10341 10343 10345 10346 10348 10349 10351 10353 10355 10357 10360 10362 10364 10366 10368 10371 10373 10375 10376 10378 10380 10383 10385 10386 10387 10388 10390 10391 10392 10394 10395 10396 10397 10398 10399 10400 10400 10401 10402 10402 10402 10402 10402 10403 10403 10404 10405 10406 10407 10407 10407 10407 10408 10408 10409 10409 10409 10409 10408 10408 10408 10408 10407 10407 10408 10408 10409 10409 10409 10409 10409 10409 10409 10408 10408 10407 10407 10406 10405 10404 10404 10404 10404 10404 10404 10403 10402
10338 10340 10341 10343 10344 10345 10347 10349 10351 10353 10355 10356 10359 10361 10363 10364 10366 10368 10370 10372 10374 10376 10378 10379 10381 10382 10383 10384 10385 10387 10388 10389 10390 10390 10391 10391 10392 10393 10393 10394 10394 10394 10395 10395 10395 10396 10396 10397 10397 10397 10397 10397 10398 10398 10398 10399 10398 10398 10398 10398 10397 10397 10397 10396 10396 10397 10397 10398 10398 10398 10398 10398 10397 10397 10397 10396 10396 10395 10394 10393 10393 10393 10393 10394 10394 10394 10393
10335 10336 10338 10339 10341 10342 10344 10346 10347 10349 10350 10352 10354 10355 10357 10359 10361 10362 10364 10366 10368 10369 10371 10372 10374 10375 10376 10377 10378 10379 10380 10381 10382 10383 10383 10383 10384 10384 10385 10386 10386 10386 10387 10387 10387 10387 10387 10388 10388 10388 10388 10388 10387 10387 10388 10388 10388 10388 10387 10387 10387 10386 10386 10385 10385 10385 10386 10387 10387 10386 10386 10386 10386 10386 10385 10385 10385 10385 10384 10383 10383 10383 10383 10383 10383 10383 10383
10331 10333 10334 10336 10338 10339 10341 10342 10344 10345 10347 10348 10350 10351 10352 10354 10355 10357 10359 10360 10362 10363 10365 10366 10367 10368 10369 10370 10371 10372 10373 10374 10374 10375 10375 10376 10376 10376 10377 10377 10378 10378 10378 10378 10378 10378 10379 10379 10379 10378 10378 10378 10378 10377 10377 10377 10377 10377 10377 10377 10376 10376 10375 10375 10374 10374 10375 10376 10376 10376 10375 10375 10375 10376 10375 10375 10374 10374 10374 10374 10374 10374 10374 10373 10373 10373 10373
10327 10329 10331 10333 10334 10336 10337 10339 10340 10342 10343 10344 10346 10347 10348 10350 10351 10353 10354 10356 10357 10358 10360 10361 10362 10363 10363 10364 10365 10366 10367 10367 10368 10368 10368 10368 10369 10369 10369 10370 10370 10371 10371 10370 10370 10370 10370 10370 10370 10370 10370 10369 10369 10369 10368 10368 10367 10367 10368 10368 10367 10367 10366 10366 10365 10364 10365 10366 10367 10367 10366 10366 10366 10367 10367 10366 10366 10365 10365 10365 10365 10365 10365 10365 10365 10364 10364
10323 10325 10327 10328 10330 10332 10333 10335 10336 10338 10339 10340 10341 10343 10344 10345 10347 10348 10350 10351 10352 10353 10354 10355 10356 10357 10358 10359 10359 10360 10360 10361 10361 10361 10361 10362 10362 10362 10362 10362 10363 10363 10364 10363 10363 10363 10362 10362 10363 10362 10362 10361 10361 10361 10360 10359 10358 10358 10358 10358 10358 10358 10358 10357 10357 10356 10356 10356 10356 10357 10357 10357 10358 10358 10358 10358 10358 10357 10357 10356 10356 10356 10356 10356 10356 10355 10355
10318 10320 10322 10324 10325 10327 10329 10330 10332 10333 10334 10335 10337 10338 10339 10341 10342 10344 10345 10346 10347 10348 10349 10350 10351 10352 10352 10353 10353 10354 10354 10354 10355 10355 10355 10355 10355 10355 10355 10355 10356 10356 10357 10356 10356 10356 10355 10355 10355 10355 10354 10354 10353 10353 10352 10351 10351 10350 10349 10349 10348 10348 10348 10348 10348 10348 10347 10347 10347 10347 10348 10348 10348 10348 10349 10349 10349 10349 10349 10348 10348 10348 10348 10348 10347 10347 10346
10312 10315 10317 10318 10320 10322 10324 10326 10327 10328 10329 10331 10332 10333 10334 10336 10337 10339 10340 10341 10342 10342 10343 10344 10345 10346 10347 10347 10347 10348 10348 10348 10348 10348 10348 10348 10348 10348 10348 10348 10349 10349 10349 10349 10349 10348 10348 10347 10347 10347 10346 10346 10345 10344 10343 10342 10342 10342 10341 10341 10340 10339 10338 10337 10337 10338 10338 10338 10338 10338 10338 10338 10338 10338 10338 10338 10339 10340 10340 10340 10340 10340 10339 10339 10339 10339 10338
10307 10309 10311 10313 10315 10317 10318 10320 10322 10323 10324 10326 10327 10328 10329 10331 10332 10334 10335 10337 10337 10338 10338 10339 10340 10340 10341 10341 10341 10342 10342 10342 10342 10342 10342 10341 10341 10341 10341 10341 10341 10341 10341 10341 10341 10341 10340 10339 10339 10338 10338 10338 10337 10336 10335 10334 10333 10333 10333 10332 10331 10330 10329 10329 10329 10329 10329 10329 10329 10329 10329 10329 10329 10329 10328 10328 10329 10330 10331 10331 10331 10330 10330 10330 10330 10330 10330
10302 10304 10306 10308 10309 10311 10313 10315 10316 10318 10319 10321 10322 10324 10325 10326 10327 10329 10331 10332 10332 10333 10333 10334 10334 10334 10335 10335 10335 10335 10335 10335 10335 10335 10335 10335 10334 10334 10334 10334 10334 10334 10334 10334 10334 10333 10333 10332 10331 10331 10330 10330 10330 10329 10328 10327 10326 10325 10325 10324 10323 10322 10322 10322 10322 10321 10321 10321 10321 10321 10321 10320 10320 10320 10319 10319 10320 10321 10321 10321 10321 10321 10321 10321 10321 10321 10321
10297 10299 10301 10303 10304 10306 10307 10309 10311 10313 10314 10316 10317 10318 10320 10321 10322 10323 10325 10327 10327 10327 10328 10328 10328 10328 10329 10329 10329 10329 10329 10329 10329 10329 10329 10329 10328 10328 10328 10327 10327 10327 10327 10327 10326 10326 10325 10325 10325 10324 10323 10323 10322 10322 10321 10320 10319 10318 10317 10317 10315 10314 10314 10314 10314 10314 10313 10313 10313 10313 10312 10312 10312 10311 10311 10311 10312 10312 10312 10312 10311 10311 10311 10312 10312 10312 10312